Zurück zum Katalog

STARLINK-6178

AktivKommunikationVLEO
NORAD 56387·PAYLOAD·🇺🇸 United States

Gestartet May 4, 2023 von Cape Canaveral Space Force Station

Loading…

Nächste Überflüge (nächste 24 Stunden)

TLE

AktuellSource: CelesTrak SupGP

Epoche: Sep 14, 2026, 22:36 UTC

1 56387C 23061P   26257.94215278 -.00011884  00000+0 -43052-3 0  2578
2 56387  43.0018 208.8853 0001873 275.4743 166.1570 15.27578873    12

Verfolge STARLINK-6178 in Echtzeit mit AllMySat

Download on the App Store